W9GWP Weather Reports


Display with metric or nautical units.
time (UTC)temp
F
wind
direction
speed
MPH
gust
MPH
rain 1hr
in
rain 24hr
in
rain mn
in
humidity
%
barometer
mb
20260506024559 51 0 0.0 2.0 0.00 0.00 0.00 50 1039.4
20260506023055 51 279 0.0 1.0 0.00 0.00 0.00 50 1039.0
20260506021552 51 326 0.0 2.0 0.00 0.00 0.00 49 1038.9
20260506020050 50 240 0.0 1.0 0.00 0.00 0.00 53 1038.6
20260506014548 51 246 0.0 0.0 0.00 0.00 0.00 50 1038.5
20260506013044 51 246 0.0 0.0 0.00 0.00 0.00 49 1038.3
20260506011540 52 180 0.0 0.0 0.00 0.00 0.00 47 1038.1
20260506010038 53 255 0.0 2.0 0.00 0.00 0.00 46 1037.7
20260506004534 53 243 0.0 3.0 0.00 0.00 0.00 44 1037.8
20260506003029 54 265 2.0 3.0 0.00 0.00 0.00 43 1037.3
20260506001524 54 310 3.0 3.0 0.00 0.00 0.00 42 1037.5
20260506000022 54 279 4.0 8.0 0.00 0.00 0.00 40 1037.5
20260505234519 55 257 1.0 7.0 0.00 0.00 0.00 38 1037.5
20260505233017 55 259 3.0 12.0 0.00 0.00 0.00 39 1037.6
20260505231514 55 254 2.0 4.0 0.00 0.00 0.00 40 1037.4
20260505230012 55 262 2.0 6.0 0.00 0.00 0.00 40 1037.4
20260505224508 56 263 4.0 7.0 0.00 0.00 0.00 39 1037.7
20260505223004 56 280 2.0 5.0 0.00 0.00 0.00 40 1037.7
20260505221459 55 273 3.0 6.0 0.00 0.00 0.00 39 1037.6
20260505215956 55 270 5.0 6.0 0.00 0.00 0.00 38 1037.8
20260505214455 56 278 5.0 12.0 0.00 0.00 0.00 39 1037.7
20260505212952 56 277 1.0 5.0 0.00 0.00 0.00 37 1037.8
20260505211449 56 267 3.0 8.0 0.00 0.00 0.00 38 1037.6
20260505205944 56 281 6.0 6.0 0.00 0.00 0.00 35 1037.9
20260505204443 56 225 3.0 9.0 0.00 0.00 0.00 36 1037.9
20260505202938 56 228 4.0 7.0 0.00 0.00 0.00 38 1038.0
20260505201434 56 225 0.0 8.0 0.00 0.00 0.00 36 1037.9
20260505195930 56 219 4.0 13.0 0.00 0.00 0.00 35 1037.8
20260505194428 57 254 7.0 11.0 0.00 0.00 0.00 33 1038.0
20260505192924 56 172 0.0 6.0 0.00 0.00 0.00 37 1038.1
20260505191424 56 253 7.0 13.0 0.00 0.00 0.00 35 1038.3
20260505185922 56 267 4.0 8.0 0.00 0.00 0.00 36 1038.5
20260505184419 56 270 5.0 6.0 0.00 0.00 0.00 39 1038.0
20260505182915 56 217 9.0 9.0 0.00 0.00 0.00 35 1038.0
20260505181412 57 278 7.0 12.0 0.00 0.00 0.00 37 1037.9
20260505175907 56 273 4.0 9.0 0.00 0.00 0.00 36 1037.8
20260505174404 56 253 4.0 9.0 0.00 0.00 0.00 37 1037.8
20260505172859 54 237 8.0 16.0 0.00 0.00 0.00 37 1037.9
20260505171359 53 256 5.0 11.0 0.00 0.00 0.00 39 1037.7
20260505165854 54 280 5.0 7.0 0.00 0.00 0.00 39 1038.1
20260505164354 53 288 5.0 10.0 0.00 0.00 0.00 41 1037.7
20260505162850 53 317 3.0 7.0 0.00 0.00 0.00 42 1037.7
20260505161345 52 218 2.0 9.0 0.00 0.00 0.00 42 1037.8
20260505152834 51 276 3.0 6.0 0.00 0.00 0.00 45 1037.9
20260505151334 50 246 6.0 7.0 0.00 0.00 0.00 43 1037.8
20260505124308 49 270 3.0 5.0 0.00 0.00 0.00 53 1037.5
20260505122808 48 270 3.0 3.0 0.00 0.00 0.00 55 1037.7
20260505121305 48 270 2.0 3.0 0.00 0.00 0.00 53 1037.4
20260505115802 48 185 1.0 4.0 0.00 0.00 0.00 53 1038.0
20260505114259 48 251 1.0 4.0 0.00 0.00 0.00 53 1037.1
20260505112800 48 223 4.0 5.0 0.00 0.00 0.00 52 1036.5
20260505111300 48 263 3.0 3.0 0.00 0.00 0.00 53 1035.9
20260505101246 49 311 3.0 6.0 0.00 0.00 0.00 52 1035.8
20260505095747 49 208 2.0 6.0 0.00 0.00 0.00 52 1035.2
20260505094243 50 245 2.0 4.0 0.00 0.00 0.00 53 1035.4
20260505092739 50 293 7.0 7.0 0.00 0.00 0.00 54 1035.1
20260505091239 50 313 5.0 10.0 0.00 0.00 0.00 55 1035.1
20260505085737 51 11 0.0 3.0 0.00 0.00 0.00 55 1035.0
20260505084237 51 294 4.0 8.0 0.00 0.00 0.00 54 1034.2
20260505082732 52 315 2.0 4.0 0.00 0.00 0.00 54 1033.7
20260505081229 52 48 0.0 5.0 0.00 0.00 0.00 53 1033.6
20260505075728 53 342 2.0 4.0 0.00 0.00 0.00 55 1032.9
20260505074226 54 286 1.0 3.0 0.00 0.00 0.00 53 1032.8
20260505072723 56 306 0.0 6.0 0.00 0.00 0.00 52 1032.9
20260505071218 56 321 2.0 5.0 0.00 0.00 0.00 50 1032.3
20260505065714 57 259 2.0 5.0 0.00 0.00 0.00 48 1032.2
20260505064212 58 66 0.0 3.0 0.00 0.00 0.00 47 1032.0
20260505062707 58 260 0.0 3.0 0.00 0.00 0.00 46 1032.1
20260505061206 59 301 2.0 11.0 0.00 0.00 0.00 43 1031.6
20260505055700 60 295 2.0 8.0 0.00 0.00 0.00 42 1031.6
20260505054158 60 340 0.0 4.0 0.00 0.00 0.00 43 1031.5
20260505052655 60 232 3.0 6.0 0.00 0.00 0.00 42 1031.2
20260505051153 60 248 3.0 7.0 0.00 0.00 0.00 42 1031.0
20260505041146 63 294 6.0 7.0 0.00 0.00 0.00 43 1030.5
20260505035642 64 292 4.0 9.0 0.00 0.00 0.00 43 1030.4
20260505034138 65 216 2.0 4.0 0.00 0.00 0.00 44 1029.9
20260505032636 66 283 3.0 8.0 0.00 0.00 0.00 42 1029.3
20260505031131 67 250 6.0 8.0 0.00 0.00 0.00 42 1029.4